{"data":{"norad_id":57642,"epoch":"2026-09-20T04:06:46.006848Z","epoch_age_seconds":159995,"freshness":"FRESH","line1":"1 57642U 23122L   26263.17136582  .00003542  00000+0  13810-3 0  9995","line2":"2 57642  43.0025  73.8985 0002325 262.7037  97.3551 15.27600857171953","mean_motion":15.27600857,"eccentricity":0.0002325,"inclination_deg":43.0025,"raan_deg":73.8985,"arg_perigee_deg":262.7037,"mean_anomaly_deg":97.3551,"bstar":0.0001381,"rev_number":17195,"period_min":94.265461648664,"perigee_km":481.39143214189,"apogee_km":484.58185463606,"semimajor_km":6861.123643389,"source":"CELESTRAK","updated_at":"2026-09-21T09:00:33.667161Z"}}